Location: Karlsruhe
(49.0131°N, 8.3874°E)
Time: 15:24:46
(UTC+02:00)

ISS - Pass Details

Date: 22 May 2021
Orbit: 419 x 422 km, 51.6° (Epoch: 25 June)

Event Time Altitude Azimuth Distance (km) Brightness Sun altitude
Rises 22:48:57 0° 280° (W) 2,372 0.8 -12.4°
Reaches altitude 10° 22:51:05 10° 285° (WNW) 1,508 -0.1 -12.6°
Maximum altitude 22:54:24 53° 4° (N) 527 -3.0 -12.9°
Drops below altitude 10° 22:57:44 10° 82° (E) 1,508 -1.2 -13.3°
Enters shadow 22:58:17 - 84° (E) 1,726 -0.9 -13.3°
